(10) Hygiea
ephemeris date magn radius delta ra dec elong phase
Opposition21 Oct 202410.53.441 AU2.449 AU01h40m+15°57'174.8°1.5°
Today21 Nov 202411.03.455 AU2.602 AU01h20m+13°39'144.6°9.5°
(10) Hygiea - 2024-11-21
astro.vanbuitenen.nl


 
-1 year
-1 month
-1 day
Now
+1 day
+1 month
+1 year

The interactive orbit chart above shows the body's path through the solar system and its position at the given date. Green and blue lines are shown perpendicular to the ecliptic plane: Green if the path is above the ecliptic plane, blue if it is below. (Left-click and drag to rotate the view; Right-click and drag to move the view; Use scroll wheel to zoom in our out.)

The orbital elements of Hygiea are:

            e (Eccentricity)                : 0.1104436
            a (Semimajor axis)              : 3.1413261
            i (Inclination)                 : 3.83162
            Ω (Longitude of ascending node) : 283.14844
            ω (Argument of perihelion)      : 312.63001
            M (Mean anomaly)                : 145.93643
            Epoch                           : 2024 Oct 17

            L (Longitude of perihelion)     : 235.84234
            B (Latitude of perihelion)      : -2.81812
            P (Orbital period in years)     : 5.57            
        

The light curve chart below shows the estimated development of the minor planet's magnitude.


The all-sky chart below shows the path of the minor planet over the same period as the light curve. The current position is marked yellow.





The following chart shows the path of the minor planet in the next few days. The field of view is optimized for (~10x50) binoculars and finderscopes. A more printer-friendly version of the same chart can be found below.




Ephemerides:
Date       Time       RA (2000)    DEC (2000)    delta   radius  elong  phase   PA    magn
2024-11-21 00:00 UT   01 20 37.5   +13 39 16     2.602    3.455  144.6    9.5    75   11.0 
2024-11-21 12:29 UT   01 20 24.5   +13 37 17     2.607    3.456  144.1    9.7    75   11.0 
2024-11-22 00:00 UT   01 20 12.7   +13 35 29     2.611    3.456  143.5    9.8    74   11.1 
2024-11-23 00:00 UT   01 19 48.9   +13 31 47     2.621    3.456  142.4   10.0    74   11.1 
2024-11-24 00:00 UT   01 19 26.3   +13 28 10     2.630    3.457  141.3   10.3    74   11.1 
2024-11-25 00:00 UT   01 19 04.8   +13 24 39     2.640    3.457  140.2   10.5    74   11.1 
2024-11-26 00:00 UT   01 18 44.4   +13 21 13     2.650    3.457  139.1   10.8    73   11.1 
2024-11-27 00:00 UT   01 18 25.2   +13 17 53     2.661    3.458  138.0   11.0    73   11.1 
2024-11-28 00:00 UT   01 18 07.1   +13 14 39     2.671    3.458  136.9   11.2    73   11.2 
2024-11-29 00:00 UT   01 17 50.2   +13 11 32     2.682    3.459  135.8   11.5    73   11.2 
2024-11-30 00:00 UT   01 17 34.5   +13 08 30     2.693    3.459  134.7   11.7    72   11.2 
2024-12-01 00:00 UT   01 17 20.0   +13 05 35     2.704    3.459  133.7   11.9    72   11.2 
2024-12-02 00:00 UT   01 17 06.7   +13 02 46     2.715    3.460  132.6   12.1    72   11.2 
2024-12-03 00:00 UT   01 16 54.6   +13 00 03     2.727    3.460  131.5   12.3    72   11.3 
2024-12-04 00:00 UT   01 16 43.7   +12 57 27     2.739    3.460  130.5   12.5    72   11.3 
2024-12-05 00:00 UT   01 16 33.9   +12 54 58     2.751    3.461  129.4   12.7    72   11.3 
2024-12-06 00:00 UT   01 16 25.4   +12 52 36     2.763    3.461  128.3   12.9    71   11.3 
2024-12-07 00:00 UT   01 16 18.2   +12 50 20     2.775    3.462  127.3   13.1    71   11.3 
2024-12-08 00:00 UT   01 16 12.1   +12 48 11     2.787    3.462  126.2   13.3    71   11.3 
2024-12-09 00:00 UT   01 16 07.2   +12 46 10     2.800    3.462  125.2   13.4    71   11.4 
2024-12-10 00:00 UT   01 16 03.5   +12 44 15     2.812    3.463  124.2   13.6    71   11.4 
2024-12-11 00:00 UT   01 16 01.0   +12 42 27     2.825    3.463  123.1   13.8    71   11.4 
2024-12-12 00:00 UT   01 15 59.8   +12 40 46     2.838    3.463  122.1   13.9    71   11.4 
2024-12-13 00:00 UT   01 15 59.7   +12 39 12     2.851    3.464  121.1   14.1    70   11.4 
2024-12-14 00:00 UT   01 16 00.8   +12 37 46     2.865    3.464  120.1   14.2    70   11.4 
2024-12-15 00:00 UT   01 16 03.0   +12 36 26     2.878    3.465  119.1   14.4    70   11.4 
2024-12-16 00:00 UT   01 16 06.4   +12 35 13     2.891    3.465  118.1   14.5    70   11.5 
2024-12-17 00:00 UT   01 16 11.0   +12 34 07     2.905    3.465  117.1   14.6    70   11.5 
2024-12-18 00:00 UT   01 16 16.8   +12 33 08     2.919    3.466  116.1   14.8    70   11.5 
2024-12-19 00:00 UT   01 16 23.7   +12 32 16     2.933    3.466  115.1   14.9    70   11.5 
2024-12-20 00:00 UT   01 16 31.7   +12 31 31     2.947    3.466  114.1   15.0    70   11.5 
2024-12-21 00:00 UT   01 16 40.9   +12 30 53     2.961    3.467  113.1   15.1    70   11.5 


    Terminology:
            
    delta:  distance between minor planet and earth in AU
    radius: distance between minor planet and sun in AU
    magn:   magnitude (brightness) estimate    
    ra:     right ascension in hours (24h = 360deg)
    dec:    declination in degrees
    elong:  elongation in degrees (angle sun-earth-minor planet)    
    phase:  phase angle in degrees (angle sun-minor planet-earth)        
    AU:     Astronomical Unit (mean distance between earth and sun: 149597870.7 km
    

Orbital elements provided by the MPC (Minor Planet Center).
Calculations by a modified version of AAPlus, a C# implementation of the AA+ project by PJ Naughter from the algorithms presented in the book "Astronomical Algorithms" by Jean Meeus.
NGC2000 dso catalog and star labels from VizieR as provided by the Strasbourg astronomical Data Center.
Tycho2 catalog from the ESO archive.